Weather History for Delaware, OH

Change the Weather History Date:

Tuesday, September 3, 2013

  Actual Average Record
Temperature  
Mean Temperature 58 °F -  
Max Temperature 66 °F 80 °F 97 °F (1953)
Min Temperature 50 °F 55 °F 41 °F (1946)
Degree Days  
Heating Degree Days 7    
Growing Degree Days 8 (Base 50)    
Moisture  
Dew Point 51 °F    
Average Humidity 80    
Maximum Humidity 94    
Minimum Humidity 60    
Precipitation  
Precipitation 0.00 in - - ()
Sea Level Pressure  
Sea Level Pressure 30.02 in    
Wind  
Wind Speed 4 mph (NNW)    
Max Wind Speed 10 mph    
Max Gust Speed 17 mph    
Visibility 10 miles    
Events      
Averages and records for this station are not official NWS values.
T = Trace of Precipitation, MM = Missing Value Source: NWS Daily Summary

Daily Weather History Graph

Daily Weather History Graph

Search for Another Location

Airport:

Trip Planner

Search our weather history database for the weather conditions in past years. The results will help you decide how hot, cold, wet, or windy it might be!

Date:

Astronomy

Sep. 03, 2013 Rise Set
Actual Time 7:02 AM EDT 8:00 PM EDT
Civil Twilight 6:34 AM EDT 8:28 PM EDT
Nautical Twilight 6:01 AM EDT 9:01 PM EDT
Astronomical Twilight 5:26 AM EDT 9:35 PM EDT
Moon 5:14 AM EDT (9/3) 6:47 PM EDT (9/3)
Length of Visible Light 13h 54m
Length of Day
12h 58m
Waning Crescent, 3% of the Moon is Illuminated
Sep 3
Waning Crescent
Sep 5
New
Sep 12
First Quarter
Sep 19
Full
Sep 26
Last Quarter

Hourly Weather History & Observations

Time (EDT) Temp. Dew Point Humidity Pressure Visibility Wind Dir Wind Speed Gust Speed Precip Events Conditions
12:14 AM 60.8 °F 55.4 °F 82% 29.92 in 10.0 mi North 5.8 mph - N/A   Clear
12:34 AM 60.8 °F 53.6 °F 77% 29.92 in 10.0 mi North 4.6 mph - N/A   Clear
12:55 AM 59.0 °F 53.6 °F 82% 29.92 in 10.0 mi North 4.6 mph - N/A   Clear
1:14 AM 59.0 °F 53.6 °F 82% 29.92 in 10.0 mi NNW 3.5 mph - N/A   Clear
1:34 AM 59.0 °F 53.6 °F 82% 29.93 in 10.0 mi Calm Calm - N/A   Clear
1:55 AM 57.2 °F 53.6 °F 88% 29.93 in 10.0 mi Calm Calm - N/A   Clear
2:14 AM 55.4 °F 53.6 °F 94% 29.93 in 10.0 mi Calm Calm - N/A   Clear
2:34 AM 55.4 °F 53.6 °F 94% 29.94 in 10.0 mi Calm Calm - N/A   Clear
2:55 AM 55.4 °F 53.6 °F 94% 29.94 in 10.0 mi NNW 3.5 mph - N/A   Clear
3:14 AM 55.4 °F 53.6 °F 94% 29.94 in 10.0 mi NNW 3.5 mph - N/A   Clear
3:34 AM 55.4 °F 53.6 °F 94% 29.94 in 10.0 mi NW 3.5 mph - N/A   Clear
3:55 AM 53.6 °F 51.8 °F 94% 29.94 in 10.0 mi NW 3.5 mph - N/A   Clear
4:14 AM 53.6 °F 51.8 °F 94% 29.94 in 10.0 mi NW 3.5 mph - N/A   Clear
4:34 AM 53.6 °F 51.8 °F 94% 29.94 in 10.0 mi NNW 3.5 mph - N/A   Clear
4:55 AM 53.6 °F 51.8 °F 94% 29.95 in 10.0 mi NW 3.5 mph - N/A   Clear
5:14 AM 53.6 °F 51.8 °F 94% 29.95 in 10.0 mi Calm Calm - N/A   Clear
5:34 AM 53.6 °F 51.8 °F 94% 29.95 in 10.0 mi NW 4.6 mph - N/A   Clear
5:55 AM 51.8 °F 50.0 °F 94% 29.96 in 10.0 mi NW 4.6 mph - N/A   Clear
6:14 AM 51.8 °F 50.0 °F 94% 29.97 in 10.0 mi Calm Calm - N/A   Clear
6:34 AM 51.8 °F 50.0 °F 94% 29.98 in 10.0 mi NNW 3.5 mph - N/A   Clear
6:55 AM 51.8 °F 50.0 °F 94% 29.98 in 10.0 mi Calm Calm - N/A   Clear
7:14 AM 51.8 °F 50.0 °F 94% 29.99 in 10.0 mi NW 3.5 mph - N/A   Clear
7:35 AM 51.8 °F 50.0 °F 94% 30.00 in 10.0 mi Calm Calm - N/A   Clear
7:54 AM 51.8 °F 50.0 °F 94% 30.00 in 10.0 mi NNW 3.5 mph - N/A   Clear
8:14 AM 51.8 °F 50.0 °F 94% 30.01 in 10.0 mi NNW 3.5 mph - N/A   Clear
8:35 AM 53.6 °F 51.8 °F 94% 30.02 in 10.0 mi NW 6.9 mph - N/A   Scattered Clouds
8:54 AM 57.2 °F 51.8 °F 82% 30.02 in 10.0 mi NW 5.8 mph - N/A   Clear
9:14 AM 59.0 °F 51.8 °F 77% 30.03 in 10.0 mi NNW 5.8 mph - N/A   Clear
9:35 AM 60.8 °F 50.0 °F 68% 30.03 in 10.0 mi NNW 9.2 mph 17.3 mph N/A   Scattered Clouds
9:54 AM 59.0 °F 50.0 °F 72% 30.03 in 10.0 mi North 10.4 mph 16.1 mph N/A   Overcast
10:14 AM 59.0 °F 48.2 °F 67% 30.04 in 10.0 mi NNW 9.2 mph - N/A   Overcast
10:35 AM 59.0 °F 48.2 °F 67% 30.04 in 10.0 mi NW 6.9 mph - N/A   Overcast
10:54 AM 59.0 °F 50.0 °F 72% 30.05 in 10.0 mi NNW 6.9 mph - N/A   Overcast
11:14 AM 60.8 °F 50.0 °F 68% 30.05 in 10.0 mi NW 8.1 mph - N/A   Overcast
11:35 AM 60.8 °F 50.0 °F 68% 30.06 in 10.0 mi North 10.4 mph - N/A   Overcast
11:54 AM 60.8 °F 50.0 °F 68% 30.06 in 10.0 mi NNW 6.9 mph - N/A   Overcast
12:14 PM 60.8 °F 50.0 °F 68% 30.05 in 10.0 mi North 8.1 mph - N/A   Overcast
12:35 PM 60.8 °F 50.0 °F 68% 30.06 in 10.0 mi North 9.2 mph - N/A   Overcast
12:54 PM 60.8 °F 50.0 °F 68% 30.05 in 10.0 mi North 6.9 mph - N/A   Overcast
1:14 PM 60.8 °F 50.0 °F 68% 30.06 in 10.0 mi North 9.2 mph - N/A   Unknown
1:35 PM 60.8 °F 50.0 °F 68% 30.06 in 10.0 mi NNW 6.9 mph - N/A   Overcast
1:54 PM 62.6 °F 50.0 °F 63% 30.06 in 10.0 mi North 6.9 mph - N/A   Overcast
2:14 PM 62.6 °F 50.0 °F 63% 30.06 in 10.0 mi NNW 6.9 mph - N/A   Overcast
2:35 PM 62.6 °F 51.8 °F 68% 30.05 in 10.0 mi North 5.8 mph - N/A   Overcast
2:54 PM 62.6 °F 51.8 °F 68% 30.05 in 10.0 mi NNW 6.9 mph - N/A   Overcast
3:14 PM 62.6 °F 51.8 °F 68% 30.06 in 10.0 mi NW 8.1 mph - N/A   Overcast
3:35 PM 62.6 °F 51.8 °F 68% 30.06 in 10.0 mi NNW 6.9 mph - N/A   Overcast
3:54 PM 64.4 °F 51.8 °F 64% 30.05 in 10.0 mi NNW 6.9 mph - N/A   Overcast
4:14 PM 64.4 °F 51.8 °F 64% 30.04 in 10.0 mi North 4.6 mph - N/A   Overcast
4:35 PM 62.6 °F 51.8 °F 68% 30.04 in 10.0 mi NNW 4.6 mph - N/A   Overcast
4:54 PM 64.4 °F 51.8 °F 64% 30.04 in 10.0 mi NNW 4.6 mph - N/A   Overcast
5:14 PM 64.4 °F 51.8 °F 64% 30.03 in 10.0 mi NW 3.5 mph - N/A   Overcast
5:35 PM 64.4 °F 51.8 °F 64% 30.04 in 10.0 mi Calm Calm - N/A   Overcast
5:54 PM 66.2 °F 51.8 °F 60% 30.04 in 10.0 mi North 4.6 mph - N/A   Overcast
6:14 PM 66.2 °F 51.8 °F 60% 30.04 in 10.0 mi Calm Calm - N/A   Overcast
6:35 PM 64.4 °F 51.8 °F 64% 30.04 in 10.0 mi North 3.5 mph - N/A   Scattered Clouds
6:54 PM 62.6 °F 51.8 °F 68% 30.04 in 10.0 mi Calm Calm - N/A   Clear
7:15 PM 62.6 °F 51.8 °F 68% 30.04 in 10.0 mi Calm Calm - N/A   Scattered Clouds
7:35 PM 60.8 °F 53.6 °F 77% 30.04 in 10.0 mi Calm Calm - N/A   Clear
7:54 PM 59.0 °F 53.6 °F 82% 30.04 in 10.0 mi Calm Calm - N/A   Clear
8:15 PM 59.0 °F 51.8 °F 77% 30.05 in 10.0 mi ESE 3.5 mph - N/A   Clear
8:35 PM 55.4 °F 51.8 °F 88% 30.05 in 10.0 mi ESE 3.5 mph - N/A   Clear
8:54 PM 55.4 °F 51.8 °F 88% 30.05 in 10.0 mi Calm Calm - N/A   Clear
9:15 PM 53.6 °F 51.8 °F 94% 30.06 in 10.0 mi ESE 3.5 mph - N/A   Clear
9:35 PM 53.6 °F 51.8 °F 94% 30.07 in 10.0 mi Calm Calm - N/A   Clear
9:54 PM 51.8 °F 50.0 °F 94% 30.07 in 10.0 mi Calm Calm - N/A   Clear
10:15 PM 51.8 °F 50.0 °F 94% 30.07 in 10.0 mi Calm Calm - N/A   Clear
10:34 PM 51.8 °F 50.0 °F 94% 30.07 in 10.0 mi Calm Calm - N/A   Clear
10:54 PM 51.8 °F 50.0 °F 94% 30.07 in 10.0 mi SSE 3.5 mph - N/A   Clear
11:15 PM 50.0 °F 48.2 °F 94% 30.08 in 10.0 mi Calm Calm - N/A   Clear
11:34 PM 50.0 °F 48.2 °F 94% 30.08 in 10.0 mi Calm Calm - N/A   Clear
11:54 PM 50.0 °F 48.2 °F 94% 30.08 in 10.0 mi Calm Calm - N/A   Clear